Location: DaltonSkyGazer Observatory
(42.4858°N, 73.1565°W)
Time: 08:16:08
(UTC-05:00)

Daily predictions for brighter satellites

Satellite Brightness Start Highest point End
(mag) Time Altitude Azimuth Time Altitude Azimuth Time Altitude Azimuth
Cosmos 1943 Rocket 3.5 16:42:39 10° WSW 16:47:49 36° WNW 16:53:03 10° N
Meteor 1-18 Rocket 4.3 16:43:23 10° S 16:48:50 61° E 16:54:23 10° NNE
COSMO-SKYMED 1 4.3 16:51:35 10° NE 16:54:08 15° E 16:56:40 10° SE
ATLAS 2AS CENTAUR R/B 3.4 16:47:29 10° S 16:54:50 51° ESE 17:02:35 10° NE
Cosmos 1812 3.4 16:52:59 10° SSW 16:56:48 58° W 17:00:38 10° N
SJ-12 4.0 16:53:40 10° SSE 16:57:47 85° WSW 17:01:56 10° NNW
Cosmos 2150 Rocket 4.3 16:52:47 10° S 16:58:05 53° ESE 17:03:23 10° NNE
NOSS 2-3 (E) 3.9 16:53:35 10° SW 16:58:13 88° NW 17:03:39 10° NE
Cosmos 1666 3.5 16:58:51 10° NNE 17:02:07 27° ENE 17:05:21 10° SE
ATLAS 3B R/B 3.1 16:55:52 10° NNW 17:02:07 39° NE 17:08:09 10° ESE
Cosmos 1975 Rocket 3.1 16:59:51 10° S 17:04:15 66° E 17:08:43 10° NNE
SJ-7 4.3 17:00:37 10° SSE 17:04:34 65° ENE 17:08:33 10° N
IRAS Rocket 4.2 17:01:19 10° SSE 17:06:47 79° ENE 17:12:17 10° NNW
SJ 16-02 3.0 17:06:24 10° SE 17:08:59 15° E 17:10:58 12° ENE
Okean 1 Rocket 4.2 17:06:25 10° NNW 17:10:45 49° W 17:15:04 10° SSW
BREEZE-M DEB (TANK) 3.4 17:08:55 10° WNW 17:10:56 28° N 17:13:51 12° NE
USA 215 3.6 17:05:39 10° SE 17:12:10 71° SW 17:18:43 10° NW
CSL-04 Debris 4.1 17:09:13 10° SSE 17:14:35 80° ENE 17:20:00 10° NNW
Cosmos 1634 Rocket 4.4 17:11:09 10° SSW 17:17:19 69° W 17:23:34 10° N
Hubble Space Telescope 3.4 17:17:35 10° SSW 17:18:57 11° S 17:20:20 10° SSE
Meteor 1-19 Rocket 4.5 17:14:03 10° SSE 17:19:27 49° E 17:24:59 10° NNE
USA 161 4.0 17:19:31 10° NNW 17:21:48 22° WNW 17:24:08 10° SW
Cosmos 1655 Rocket 4.0 17:21:30 10° N 17:27:55 85° E 17:34:19 10° S
Cosmos 1536 Rocket 4.0 17:28:24 10° SSE 17:32:27 39° E 17:36:26 10° NNE
Meteor 1-12 Rocket 4.5 17:28:50 10° NNW 17:34:31 76° W 17:40:15 10° S
EO 1 Del DPAF 4.1 17:32:41 19° NE 17:34:35 29° E 17:37:56 10° SSE
Meteor 1-28 Rocket 3.2 17:31:40 10° N 17:35:25 84° WNW 17:39:11 10° SSW
NOAA 15 4.5 17:30:36 10° SSE 17:35:48 74° ENE 17:41:04 10° N
CSL-04 Rocket 4.3 17:30:41 10° S 17:36:00 61° WSW 17:41:28 10° NNW
MOS 1 4.4 17:31:05 10° SE 17:36:33 50° ENE 17:42:01 10° N
FENGYUN 3A 4.0 17:34:30 10° SE 17:39:29 40° ENE 17:44:28 10° N
Ariane Rocket 3.5 17:35:03 10° S 17:40:02 62° WSW 17:45:04 10° NNW
Cosmos 1743 2.7 17:36:18 10° N 17:40:11 84° W 17:44:04 10° S
SKYMED 2 3.8 17:38:35 12° NNE 17:42:33 48° E 17:46:44 10° S
Cosmos 2266 Rocket 4.0 17:36:46 10° N 17:42:43 53° ENE 17:48:41 10° SSE
Cosmos 1697 Rocket 3.8 17:38:38 10° SSE 17:43:03 24° ESE 17:44:23 22° E
Cosmos 389 Rocket 3.1 17:40:55 10° NNW 17:44:22 56° W 17:47:44 10° S
CENTAUR R/B 4.1 17:38:37 10° NNW 17:44:36 24° NNE 17:47:34 20° ENE
CZ-2C R/B 3.7 17:41:33 10° NNE 17:46:14 90° W 17:50:58 10° SSW
Cosmos 2082 3.8 17:42:33 10° NNW 17:48:02 50° ENE 17:53:28 10° SE
METEOR-M 4.0 17:42:47 10° SSE 17:48:06 77° ENE 17:53:28 10° N
NOAA 12 4.3 17:43:54 10° SE 17:48:56 47° ENE 17:53:57 10° N
Cosmos 1125 Rocket 3.8 17:44:58 10° S 17:50:02 48° ESE 17:53:17 21° NE
SMAP 4.1 17:46:11 10° S 17:50:39 47° W 17:55:10 10° NNW
IRS-1A Rocket 4.3 17:45:18 10° SSE 17:50:55 83° WSW 17:56:30 10° NNW
Atlas Centaur 2 3.8 17:52:23 10° SW 17:55:42 18° S 17:58:38 10° SSE
Cosmos 724 4.3 17:51:12 10° NNW 17:56:52 53° NE 18:02:10 12° SE
Cosmos 1048 Rocket 4.1 17:53:43 10° NNW 17:59:01 57° ENE 18:04:18 10° SE
Landsat 4 3.7 17:58:14 15° N 18:01:24 81° WNW 18:05:12 10° SSW
Meteor 1-23 Rocket 4.3 17:56:04 10° S 18:01:39 53° E 18:06:17 15° NNE
ALOS 2.2 17:57:19 10° SSE 18:01:55 63° ENE 18:06:33 10° N
Cosmos 2227 Rocket 2.1 17:56:37 10° NNW 18:02:19 81° ENE 18:07:58 10° SSE
USA 238 DEB 3.7 17:55:11 10° NW 18:02:21 85° NE 18:09:33 10° SE
USA 238 3.7 17:55:17 10° NW 18:02:26 84° NE 18:09:39 10° SE
DELTA 2 R/B (1) 3.8 17:58:24 10° WSW 18:03:54 64° S 18:06:33 31° ESE
Cosmos 1271 Rocket 4.1 18:04:14 10° NNW 18:07:47 40° W 18:11:22 10° SSW
Cosmos 1455 Rocket 4.0 18:05:32 10° NNW 18:09:49 49° W 18:14:03 10° SSW
Meteor 2-9 Rocket 4.2 18:07:22 10° NNW 18:12:55 79° W 18:18:19 10° S
YAOGAN 1 3.7 18:13:00 10° S 18:17:08 45° W 18:21:18 10° NNW
ERS-2 2.5 18:16:12 10° S 18:19:50 63° WSW 18:23:29 10° NNW
ISS -3.5 18:16:44 10° WNW 18:19:54 65° SW 18:19:54 65° SW
Cosmos 372 Rocket 3.9 18:15:36 10° SSW 18:20:49 86° ESE 18:23:18 32° NNE
Abrixas rocket 3.5 18:18:54 10° W 18:21:25 32° NW 18:21:25 32° NW
BREEZE-M DEB (TANK) 3.8 18:19:21 10° NW 18:22:26 63° NNE 18:23:32 48° E
Cosmos 1980 Rocket 3.4 18:17:41 10° SSE 18:20:55 25° SE 18:20:55 25° SE
CZ-4 R/B 3.8 18:20:27 10° SSW 18:23:35 23° W 18:26:46 10° NW
Cosmos 2297 Rocket 2.3 18:23:50 10° NNW 18:29:29 73° WSW 18:35:07 10° SSE
COSMO-SKYMED 1 3.4 18:27:10 15° N 18:30:34 49° WNW 18:34:45 10° SSW
NOSS 3-2 (A) 3.9 18:25:40 10° NW 18:33:14 79° NE 18:40:02 16° SE
NOSS 3-2 (C) 3.9 18:31:20 10° NNW 18:38:50 69° NE 18:42:30 36° SE
ATLAS 2AS CENTAUR R/B 3.9 18:38:31 10° WSW 18:46:01 46° NW 18:51:14 21° NNE
SJ 16-02 2.2 18:42:54 10° SW 18:47:08 48° WNW 18:48:01 41° NNW
Cosmos 1656 4.0 18:46:06 10° SW 18:51:38 63° WNW 18:53:14 44° N
ATLAS 3B R/B 3.5 18:46:36 10° NW 18:52:54 47° WSW 18:59:03 10° S
Meteor 2-11 Rocket 4.5 18:51:27 10° SSW 18:57:36 77° W 19:00:57 29° N
Cosmos 1241 Rocket 4.3 18:52:13 10° SSW 18:58:37 86° ESE 18:59:02 79° NE
Cosmos 2369 4.5 18:53:58 10° SW 18:59:26 49° WNW 19:01:30 34° N
Cosmos 2278 4.4 18:55:45 10° SW 19:01:14 49° WNW 19:03:06 36° N
Thor Agena Rocket 4.4 19:06:52 41° SSW 19:06:52 41° SSW 19:10:13 10° SSW
NOSS 3-4 (A) 3.3 19:00:28 10° SSW 19:06:29 84° S 19:06:29 84° S
NOSS 3-4 (C) 3.3 19:00:33 10° SSW 19:06:32 83° S 19:06:32 83° S
Gbstr 26 Del rocket 4.1 19:02:23 10° SW 19:10:20 87° SE 19:10:43 82° ENE
Cosmos 1697 Rocket 3.5 19:21:10 10° SW 19:26:11 49° WNW 19:26:11 49° WNW
CENTAUR R/B 3.4 19:28:52 10° NNW 19:34:48 53° N 19:34:48 53° N
Cosmos 1980 Rocket 4.4 20:00:58 10° SW 20:02:45 20° WSW 20:02:45 20° WSW
